Location: Alberta Star Party
(51.6612°N, 112.9089°W)
Time: 20:15:07
(UTC-06:00)

Amateur Radio Satellites - All Passes

Search period start: 16 April 2014 19:45
Search period end: 17 April 2014 19:45
Location: Alberta Star Party, 51.6612°N, 112.9089°W

Satellite Date Start Highest point End Downlink Frequencies (MHz)
Time Altitude Azimuth
SO-67 16 Apr 19:47:25 19:50:55 79° 75° (ENE) 19:54:26 435.3500 MHz FM
Saudisat 1A 16 Apr 19:55:49 20:00:05 43° 38° (NE) 20:04:18 436.775 MHz
HO-68 16 Apr 20:02:49 20:08:50 31° 52° (NE) 20:14:53 435.675 MHz FM
SO-50 16 Apr 20:11:59 20:15:32 22° 339° (NNW) 20:19:07 436.795 FM
Oscar 11 16 Apr 20:55:33 20:58:20 17° 57° (ENE) 21:01:08 145.825 FM, Beacon 2401.500 USB
ISS 16 Apr 20:58:43 21:02:06 90° 38° (NE) 21:05:29 145.800 FM
STRAND 1 16 Apr 21:00:22 21:05:24 61° 291° (WNW) 21:10:25 ?
UOSAT-12 16 Apr 21:10:18 21:14:42 42° 324° (NW) 21:19:11 437.025 FM, 437.400 FM
JAS-2 16 Apr 21:17:25 21:21:23 19° 270° (W) 21:25:10 435.800 - 435.900 CW/SSB, 435.910 FM
Saudisat 1A 16 Apr 21:35:35 21:39:41 38° 238° (WSW) 21:43:44 436.775 MHz
HO-68 16 Apr 21:48:51 21:55:59 77° 254° (WSW) 22:03:12 435.675 MHz FM
SO-50 16 Apr 21:54:45 21:57:40 16° 4° (N) 22:00:37 436.795 FM
FUNcube-1 16 Apr 22:11:49 22:15:25 28° 64° (ENE) 22:19:01 145.950 - 145.970 MHz USB
Oscar 11 16 Apr 22:29:44 22:34:02 74° 257° (WSW) 22:38:23 145.825 FM, Beacon 2401.500 USB
ISS 16 Apr 22:35:31 22:38:44 44° 204° (SSW) 22:41:58 145.800 FM
STRAND 1 16 Apr 22:41:23 22:43:39 13° 311° (NW) 22:45:55 ?
UOSAT-12 16 Apr 22:52:40 22:56:01 19° 347° (NNW) 22:59:23 437.025 FM, 437.400 FM
MaSat-1 16 Apr 23:16:16 23:18:56 39° 119° (ESE) 23:21:22 437.345 MHz
SO-50 16 Apr 23:35:42 23:39:40 28° 28° (NNE) 23:43:40 436.795 FM
HO-68 16 Apr 23:40:21 23:44:55 18° 275° (W) 23:49:31 435.675 MHz FM
FUNcube-1 16 Apr 23:47:53 23:51:47 36° 263° (W) 23:55:41 145.950 - 145.970 MHz USB
ISS 17 Apr 00:13:38 00:14:51 12° 223° (SW) 00:16:04 145.800 FM
UOSAT-12 17 Apr 00:34:28 00:37:48 19° 12° (NNE) 00:41:09 437.025 FM, 437.400 FM
OPAL 17 Apr 00:55:29 00:57:24 12° 44° (NE) 00:59:19 ?
MaSat-1 17 Apr 00:56:06 00:57:32 14° 316° (NW) 00:58:56 437.345 MHz
SO-50 17 Apr 01:16:07 01:20:45 83° 229° (SW) 01:25:27 436.795 FM
Sapphire 17 Apr 01:37:06 01:41:31 26° 111° (ESE) 01:45:56 437.095 MHz 1200 baud AX-25 AFSK
Oscar 19 17 Apr 01:58:41 02:01:54 16° 87° (E) 02:05:07 437.125 CW, 437.150 USB
Oscar 16 17 Apr 02:06:05 02:09:51 20° 89° (E) 02:13:36 437.025 USB, Beacon 2401.1428
UOSAT-12 17 Apr 02:14:42 02:19:10 40° 35° (NE) 02:23:37 437.025 FM, 437.400 FM
PCSat 17 Apr 02:21:07 02:26:23 56° 120° (ESE) 02:31:41 145.825 MHz
AO-Echo 17 Apr 02:24:21 02:25:29 11° 83° (E) 02:26:37 ?
OPAL 17 Apr 02:30:21 02:35:13 53° 65° (ENE) 02:40:12 ?
Uribyol 2 17 Apr 02:36:18 02:40:01 20° 89° (E) 02:43:42 436.500 FM
SO-50 17 Apr 02:58:01 03:00:41 15° 248° (WSW) 03:03:21 436.795 FM
AO-27 17 Apr 03:14:25 03:19:14 37° 97° (E) 03:24:01 436.795 MHz FM
Sapphire 17 Apr 03:19:08 03:24:32 68° 311° (NW) 03:29:58 437.095 MHz 1200 baud AX-25 AFSK
ITAMSAT 1 17 Apr 03:25:47 03:30:45 45° 99° (E) 03:35:42 435.822 SSB
KITSAT 1 17 Apr 03:26:18 03:32:53 29° 107° (ESE) 03:39:30 435.175 FM
Oscar 19 17 Apr 03:36:44 03:41:59 87° 286° (WNW) 03:47:11 437.125 CW, 437.150 USB
TMSAT-1 17 Apr 03:42:00 03:45:35 18° 88° (E) 03:49:09 436.925 FM
Oscar 16 17 Apr 03:44:34 03:49:46 73° 289° (WNW) 03:54:57 437.025 USB, Beacon 2401.1428
JAS-1B 17 Apr 03:50:13 03:50:33 10° 80° (E) 03:50:52 435.800 - 435.900 CW/SSB
UOSAT-12 17 Apr 03:54:55 03:59:28 48° 236° (SW) 04:03:59 437.025 FM, 437.400 FM
AO-Echo 17 Apr 04:00:21 04:05:15 72° 103° (ESE) 04:09:59 ?
AO-7 17 Apr 04:01:51 04:03:41 11° 78° (ENE) 04:05:31 29.400 - 29.500 MHz
PCSat 17 Apr 04:05:01 04:10:04 38° 322° (NW) 04:15:08 145.825 MHz
OPAL 17 Apr 04:10:09 04:14:24 27° 264° (W) 04:18:44 ?
Uribyol 2 17 Apr 04:14:53 04:20:04 73° 289° (WNW) 04:25:13 436.500 FM
Uosat F 17 Apr 04:17:52 04:20:20 14° 86° (E) 04:22:47 435.120 FM
Gurwin Techsat 1B 17 Apr 04:30:54 04:36:09 57° 101° (E) 04:41:22 435.225 FM
AO-27 17 Apr 04:54:00 04:58:48 39° 296° (WNW) 05:03:34 436.795 MHz FM
Sapphire 17 Apr 05:04:38 05:08:56 23° 334° (NNW) 05:13:15 437.095 MHz 1200 baud AX-25 AFSK
ITAMSAT 1 17 Apr 05:05:33 05:10:09 33° 298° (WNW) 05:14:44 435.822 SSB
STRAND 1 17 Apr 05:07:37 05:09:35 12° 48° (NE) 05:11:33 ?
Oscar 19 17 Apr 05:17:13 05:20:39 18° 306° (NW) 05:24:05 437.125 CW, 437.150 USB
KITSAT 1 17 Apr 05:19:18 05:27:27 87° 309° (NW) 05:35:39 435.175 FM
TMSAT-1 17 Apr 05:20:51 05:26:11 81° 287° (WNW) 05:31:28 436.925 FM
Oscar 16 17 Apr 05:25:22 05:28:18 15° 309° (NW) 05:31:15 437.025 USB, Beacon 2401.1428
JAS-1B 17 Apr 05:36:53 05:42:40 66° 103° (ESE) 05:48:21 435.800 - 435.900 CW/SSB
AO-Echo 17 Apr 05:40:00 05:43:32 20° 304° (WNW) 05:46:59 ?
AO-7 17 Apr 05:50:38 05:58:41 50° 101° (E) 06:06:42 29.400 - 29.500 MHz
PCSat 17 Apr 05:51:25 05:55:02 18° 347° (NNW) 05:58:39 145.825 MHz
Uosat F 17 Apr 05:54:53 05:59:56 83° 105° (ESE) 06:04:57 435.120 FM
Uribyol 2 17 Apr 05:55:48 05:58:44 16° 309° (NW) 06:01:40 436.500 FM
Gurwin Techsat 1B 17 Apr 06:11:22 06:15:51 28° 301° (WNW) 06:20:18 435.225 FM
STRAND 1 17 Apr 06:42:47 06:47:47 57° 68° (ENE) 06:52:48 ?
Sapphire 17 Apr 06:51:06 06:54:21 16° 1° (N) 06:57:37 437.095 MHz 1200 baud AX-25 AFSK
TMSAT-1 17 Apr 07:02:01 07:05:22 17° 308° (NW) 07:08:42 436.925 FM
Hamsat 17 Apr 07:09:00 07:12:44 27° 93° (E) 07:16:26 145.90 MHz
KITSAT 1 17 Apr 07:16:26 07:23:55 38° 335° (NNW) 07:31:24 435.175 FM
JAS-1B 17 Apr 07:28:19 07:32:57 25° 306° (NW) 07:37:28 435.800 - 435.900 CW/SSB
RS-15 17 Apr 07:31:43 07:41:39 39° 110° (ESE) 07:51:20 29.354 - 29.394 USB, Beacon 29.352 USB
MaSat-1 17 Apr 07:34:25 07:37:05 54° 55° (NE) 07:40:07 437.345 MHz
Uosat F 17 Apr 07:34:41 07:38:10 19° 305° (NW) 07:41:37 435.120 FM
PCSat 17 Apr 07:36:59 07:40:35 18° 13° (NNE) 07:44:10 145.825 MHz
AO-7 17 Apr 07:43:38 07:51:33 51° 303° (WNW) 07:59:28 29.400 - 29.500 MHz
JAS-2 17 Apr 08:17:18 08:22:14 39° 98° (E) 08:27:29 435.800 - 435.900 CW/SSB, 435.910 FM
STRAND 1 17 Apr 08:23:08 08:27:19 25° 268° (W) 08:31:32 ?
Sapphire 17 Apr 08:35:22 08:39:45 24° 26° (NNE) 08:44:07 437.095 MHz 1200 baud AX-25 AFSK
SO-67 17 Apr 08:39:53 08:43:18 45° 99° (E) 08:46:40 435.3500 MHz FM
Hamsat 17 Apr 08:44:47 08:48:51 40° 292° (WNW) 08:52:55 145.90 MHz
HO-68 17 Apr 09:12:05 09:16:14 16° 84° (E) 09:20:22 435.675 MHz FM
MaSat-1 17 Apr 09:14:33 09:15:17 11° 249° (WSW) 09:16:02 437.345 MHz
KITSAT 1 17 Apr 09:14:46 09:21:43 30° 4° (N) 09:28:38 435.175 FM
PCSat 17 Apr 09:20:31 09:25:34 37° 38° (NE) 09:30:35 145.825 MHz
AO-7 17 Apr 09:37:21 09:42:34 19° 327° (NNW) 09:47:48 29.400 - 29.500 MHz
RS-15 17 Apr 09:41:54 09:53:09 80° 315° (NW) 10:04:10 29.354 - 29.394 USB, Beacon 29.352 USB
JAS-2 17 Apr 10:02:39 10:07:24 37° 296° (WNW) 10:12:26 435.800 - 435.900 CW/SSB, 435.910 FM
Oscar 11 17 Apr 10:13:18 10:15:44 15° 88° (E) 10:18:10 145.825 FM, Beacon 2401.500 USB
SO-67 17 Apr 10:13:47 10:16:11 18° 297° (WNW) 10:18:34 435.3500 MHz FM
Sapphire 17 Apr 10:18:39 10:24:07 72° 50° (NE) 10:29:31 437.095 MHz 1200 baud AX-25 AFSK
HO-68 17 Apr 10:58:05 11:05:17 70° 105° (ESE) 11:12:27 435.675 MHz FM
PCSat 17 Apr 11:03:57 11:09:16 57° 240° (WSW) 11:14:34 145.825 MHz
KITSAT 1 17 Apr 11:11:29 11:19:16 46° 32° (NNE) 11:26:59 435.175 FM
FUNcube-1 17 Apr 11:31:27 11:35:06 28° 95° (E) 11:38:47 145.950 - 145.970 MHz USB
Oscar 11 17 Apr 11:48:07 11:52:30 77° 287° (WNW) 11:56:51 145.825 FM, Beacon 2401.500 USB
Saudisat 1A 17 Apr 11:48:38 11:51:14 15° 112° (ESE) 11:53:51 436.775 MHz
Oscar 16 17 Apr 11:53:47 11:54:48 11° 46° (NE) 11:55:49 437.025 USB, Beacon 2401.1428
RS-15 17 Apr 11:56:44 12:07:12 45° 345° (NNW) 12:17:35 29.354 - 29.394 USB, Beacon 29.352 USB
Sapphire 17 Apr 12:02:46 12:07:04 24° 250° (WSW) 12:11:21 437.095 MHz 1200 baud AX-25 AFSK
Uribyol 2 17 Apr 12:24:29 12:25:48 11° 46° (NE) 12:27:07 436.500 FM
HO-68 17 Apr 12:46:19 12:52:33 34° 306° (NW) 12:58:47 435.675 MHz FM
PCSat 17 Apr 12:50:45 12:51:33 10° 259° (W) 12:52:22 145.825 MHz
AO-27 17 Apr 13:00:42 13:04:18 19° 54° (NE) 13:07:53 436.795 MHz FM
KITSAT 1 17 Apr 13:07:08 13:15:13 71° 237° (WSW) 13:23:13 435.175 FM
FUNcube-1 17 Apr 13:07:45 13:11:38 37° 293° (WNW) 13:15:34 145.950 - 145.970 MHz USB
ITAMSAT 1 17 Apr 13:11:35 13:15:30 22° 56° (NE) 13:19:25 435.822 SSB
AO-7 17 Apr 13:17:54 13:21:21 13° 22° (NNE) 13:24:49 29.400 - 29.500 MHz
Oscar 19 17 Apr 13:20:25 13:25:10 40° 64° (ENE) 13:29:59 437.125 CW, 437.150 USB
Saudisat 1A 17 Apr 13:25:44 13:30:13 87° 131° (SE) 13:34:43 436.775 MHz
Oscar 11 17 Apr 13:26:03 13:27:59 13° 306° (NW) 13:29:54 145.825 FM, Beacon 2401.500 USB
Oscar 16 17 Apr 13:28:05 13:33:00 48° 66° (ENE) 13:37:58 437.025 USB, Beacon 2401.1428
TMSAT-1 17 Apr 13:33:10 13:34:02 10° 45° (NE) 13:34:55 436.925 FM
AO-Echo 17 Apr 13:40:42 13:45:07 29° 61° (ENE) 13:49:28 ?
Uribyol 2 17 Apr 13:59:12 14:04:10 49° 67° (ENE) 14:09:09 436.500 FM
RS-15 17 Apr 14:11:57 14:22:26 47° 19° (NNE) 14:32:57 29.354 - 29.394 USB, Beacon 29.352 USB
Gurwin Techsat 1B 17 Apr 14:18:55 14:23:20 28° 59° (ENE) 14:27:45 435.225 FM
HO-68 17 Apr 14:36:21 14:38:12 11° 330° (NNW) 14:40:04 435.675 MHz FM
AO-27 17 Apr 14:37:59 14:43:12 87° 254° (WSW) 14:48:26 436.795 MHz FM
JAS-1B 17 Apr 14:38:19 14:44:10 25° 54° (NE) 14:49:20 435.800 - 435.900 CW/SSB
Oscar 10/S400 17 Apr 14:46:12 15:57:40 20° 263° (W) 18:13:15 145.825 - 145.975 CW/USB, Beacon 145.810 USB
ITAMSAT 1 17 Apr 14:49:21 14:54:32 73° 256° (WSW) 14:59:44 435.822 SSB
Oscar 19 17 Apr 14:59:51 15:04:35 37° 264° (W) 15:09:22 437.125 CW, 437.150 USB
KITSAT 1 17 Apr 15:04:03 15:09:13 19° 259° (W) 15:14:23 435.175 FM
AO-7 17 Apr 15:04:38 15:11:40 33° 48° (NE) 15:18:43 29.400 - 29.500 MHz
Saudisat 1A 17 Apr 15:06:36 15:10:22 26° 333° (NNW) 15:14:09 436.775 MHz
TMSAT-1 17 Apr 15:07:44 15:12:45 46° 66° (ENE) 15:17:48 436.925 FM
Oscar 16 17 Apr 15:08:06 15:12:35 30° 266° (W) 15:17:07 437.025 USB, Beacon 2401.1428
AO-Echo 17 Apr 15:18:33 15:23:41 53° 260° (W) 15:28:42 ?
Uosat F 17 Apr 15:35:36 15:40:07 34° 62° (ENE) 15:44:38 435.120 FM
Uribyol 2 17 Apr 15:39:26 15:43:53 29° 266° (W) 15:48:22 436.500 FM
Gurwin Techsat 1B 17 Apr 15:57:46 16:03:00 59° 259° (W) 16:08:16 435.225 FM
OPAL 17 Apr 16:13:20 16:18:25 51° 102° (ESE) 16:23:29 ?
AO-27 17 Apr 16:20:35 16:23:30 15° 274° (W) 16:26:27 436.795 MHz FM
RS-15 17 Apr 16:25:10 16:36:10 88° 49° (NE) 16:47:21 29.354 - 29.394 USB, Beacon 29.352 USB
JAS-1B 17 Apr 16:26:16 16:34:17 87° 253° (WSW) 16:40:58 435.800 - 435.900 CW/SSB
ITAMSAT 1 17 Apr 16:32:55 16:34:58 12° 276° (W) 16:37:01 435.822 SSB
TMSAT-1 17 Apr 16:48:08 16:52:51 32° 266° (W) 16:57:37 436.925 FM
Saudisat 1A 17 Apr 16:48:39 16:51:24 16° 357° (N) 16:54:08 436.775 MHz
AO-7 17 Apr 16:55:27 17:03:45 84° 250° (WSW) 17:12:07 29.400 - 29.500 MHz
ISS 17 Apr 16:58:48 17:00:53 16° 141° (SE) 17:02:58 145.800 FM
Uosat F 17 Apr 17:14:06 17:18:51 41° 262° (W) 17:23:38 435.120 FM
SO-50 17 Apr 17:16:23 17:20:41 48° 124° (SE) 17:25:04 436.795 FM
OPAL 17 Apr 17:52:34 17:57:07 31° 302° (WNW) 18:01:40 ?
Hamsat 17 Apr 18:07:44 18:11:37 37° 67° (ENE) 18:15:34 145.90 MHz
UOSAT-12 17 Apr 18:13:10 18:15:37 14° 110° (ESE) 18:18:05 437.025 FM, 437.400 FM
JAS-1B 17 Apr 18:20:04 18:25:39 21° 271° (W) 18:30:40 435.800 - 435.900 CW/SSB
Saudisat 1A 17 Apr 18:29:05 18:32:33 21° 21° (NNE) 18:35:58 436.775 MHz
ISS 17 Apr 18:33:49 18:37:07 54° 159° (SSE) 18:40:25 145.800 FM
JAS-2 17 Apr 18:35:50 18:40:50 33° 62° (ENE) 18:45:31 435.800 - 435.900 CW/SSB, 435.910 FM
RS-15 17 Apr 18:38:10 18:47:18 33° 254° (WSW) 18:56:37 29.354 - 29.394 USB, Beacon 29.352 USB
STRAND 1 17 Apr 18:49:50 18:51:52 12° 85° (E) 18:53:54 ?
AO-7 17 Apr 18:51:42 18:57:48 22° 272° (W) 19:03:58 29.400 - 29.500 MHz
SO-50 17 Apr 18:57:13 19:01:25 37° 326° (NW) 19:05:40 436.795 FM
SO-67 17 Apr 19:18:51 19:22:06 37° 69° (ENE) 19:25:22 435.3500 MHz FM
